Weather History for Naples, Italy

Change the Weather History Date:

Thursday, January 10, 2013

  Actual Average Record
Temperature  
Mean Temperature 54 °F -  
Max Temperature 57 °F 55 °F 64 °F (2007)
Min Temperature 50 °F 39 °F 32 °F (2002)
Degree Days  
Heating Degree Days 12    
Growing Degree Days 4 (Base 50)    
Moisture  
Dew Point 47 °F    
Average Humidity 81    
Maximum Humidity 94    
Minimum Humidity 63    
Precipitation  
Precipitation 0.00 in 0.13 in - ()
Sea Level Pressure  
Sea Level Pressure 29.95 in    
Wind  
Wind Speed 3 mph ()    
Max Wind Speed 12 mph    
Max Gust Speed -    
Visibility 5.1 miles    
Events Rain    
Averages and records for this station are not official NWS values.
T = Trace of Precipitation, MM = Missing Value Source: Averaged Metar Reports

Daily Weather History Graph

Daily Weather History Graph

Search for Another Location

Airport:

Trip Planner

Search our weather history database for the weather conditions in past years. The results will help you decide how hot, cold, wet, or windy it might be!

Date:

Astronomy

Jan. 10, 2013 Rise Set
Actual Time 7:26 AM CET 4:54 PM CET
Civil Twilight 6:56 AM CET 5:24 PM CET
Nautical Twilight 6:22 AM CET 5:58 PM CET
Astronomical Twilight 5:49 AM CET 6:31 PM CET
Moon 5:49 AM CET (1/10) 3:42 PM CET (1/10)
Length of Visible Light 10h 28m
Length of Day
9h 27m
Waning Crescent, 3% of the Moon is Illuminated
Jan 10
Waning Crescent
Jan 11
New
Jan 19
First Quarter
Jan 27
Full
Feb 3
Last Quarter

Hourly Weather History & Observations

Time (CET) Temp. Dew Point Humidity Pressure Visibility Wind Dir Wind Speed Gust Speed Precip Events Conditions
12:20 AM 50.0 °F 44.6 °F 82% 30.12 in 5.0 mi Calm Calm - N/A   Scattered Clouds
12:50 AM 50.0 °F 44.6 °F 82% 30.12 in 5.0 mi Variable 1.2 mph - N/A   Scattered Clouds
1:20 AM 51.8 °F 46.4 °F 82% 30.09 in 5.0 mi South 2.3 mph - N/A   Scattered Clouds
1:50 AM 51.8 °F 44.6 °F 76% 30.09 in 5.0 mi South 1.2 mph - N/A   Scattered Clouds
2:20 AM 51.8 °F 44.6 °F 76% 30.09 in 5.0 mi WSW 3.5 mph - N/A   Scattered Clouds
2:50 AM 51.8 °F 46.4 °F 82% 30.09 in 5.0 mi Variable 2.3 mph - N/A   Scattered Clouds
3:20 AM 51.8 °F 44.6 °F 76% 30.09 in 5.0 mi West 2.3 mph - N/A   Mostly Cloudy
3:50 AM 51.8 °F 46.4 °F 82% 30.06 in 5.0 mi West 2.3 mph - N/A   Mostly Cloudy
4:20 AM 51.8 °F 46.4 °F 82% 30.06 in 5.0 mi Variable 2.3 mph - N/A   Mostly Cloudy
4:50 AM 51.8 °F 46.4 °F 82% 30.04 in 5.0 mi Variable 2.3 mph - N/A   Scattered Clouds
5:20 AM 51.8 °F 46.4 °F 82% 30.04 in 5.0 mi Variable 1.2 mph - N/A   Scattered Clouds
5:50 AM 51.8 °F 46.4 °F 82% 30.04 in 5.0 mi Variable 2.3 mph - N/A   Scattered Clouds
6:20 AM 51.8 °F 44.6 °F 76% 30.04 in 5.0 mi Variable 2.3 mph - N/A   Scattered Clouds
6:50 AM 51.8 °F 46.4 °F 82% 30.04 in 5.0 mi WNW 3.5 mph - N/A   Mostly Cloudy
7:20 AM 51.8 °F 46.4 °F 82% 30.04 in 5.0 mi Variable 2.3 mph - N/A   Mostly Cloudy
7:50 AM 51.8 °F 46.4 °F 82% 30.01 in 5.0 mi Variable 1.2 mph - N/A   Mostly Cloudy
8:20 AM 51.8 °F 46.4 °F 82% 30.01 in 5.0 mi Variable 2.3 mph - N/A   Mostly Cloudy
8:50 AM 51.8 °F 46.4 °F 82% 30.01 in 5.0 mi Variable 1.2 mph - N/A   Mostly Cloudy
9:20 AM 51.8 °F 46.4 °F 82% 30.01 in 5.0 mi Variable 2.3 mph - N/A   Mostly Cloudy
9:50 AM 57.2 °F 46.4 °F 67% 30.01 in 6.2 mi SSW 8.1 mph - N/A   Mostly Cloudy
10:20 AM 57.2 °F 44.6 °F 63% 30.01 in 6.2 mi SW 8.1 mph - N/A   Mostly Cloudy
10:50 AM 57.2 °F 46.4 °F 67% 30.01 in 6.2 mi SSW 8.1 mph - N/A   Mostly Cloudy
11:20 AM 57.2 °F 44.6 °F 63% 29.98 in 6.2 mi SSW 11.5 mph - N/A   Mostly Cloudy
11:50 AM 57.2 °F 44.6 °F 63% 29.95 in 6.2 mi SSW 8.1 mph - N/A   Mostly Cloudy
12:20 PM 57.2 °F 46.4 °F 67% 29.95 in 6.2 mi SSW 9.2 mph - N/A   Mostly Cloudy
12:50 PM 57.2 °F 46.4 °F 67% 29.92 in 6.2 mi South 9.2 mph - N/A   Mostly Cloudy
1:20 PM 57.2 °F 46.4 °F 67% 29.89 in 6.2 mi South 9.2 mph - N/A   Light Drizzle
1:50 PM 57.2 °F 46.4 °F 67% 29.89 in 6.2 mi South 10.4 mph - N/A   Mostly Cloudy
2:20 PM 55.4 °F 48.2 °F 77% 29.89 in 6.2 mi SSW 9.2 mph - N/A   Light Drizzle
2:50 PM 55.4 °F 48.2 °F 77% 29.86 in 6.2 mi South 5.8 mph - N/A   Light Drizzle
3:20 PM 55.4 °F 48.2 °F 77% 29.86 in 6.2 mi South 4.6 mph - N/A   Light Drizzle
3:50 PM 55.4 °F 50.0 °F 82% 29.83 in 6.2 mi South 6.9 mph - N/A   Light Drizzle
4:20 PM 53.6 °F 50.0 °F 88% 29.83 in 6.2 mi Variable 2.3 mph - N/A   Light Drizzle
4:50 PM 53.6 °F 50.0 °F 88% 29.83 in 3.7 mi NW 3.5 mph - N/A Rain Light Rain
5:20 PM 53.6 °F 50.0 °F 88% 29.83 in 3.7 mi North 3.5 mph - N/A Rain Light Rain
5:50 PM 53.6 °F 50.0 °F 88% 29.83 in 5.0 mi North 4.6 mph - N/A   Mostly Cloudy
6:20 PM 51.8 °F 50.0 °F 94% 29.83 in 3.7 mi Variable 2.3 mph - N/A Rain Light Rain
6:50 PM 53.6 °F 50.0 °F 88% 29.83 in 3.7 mi NNW 3.5 mph - N/A Rain Light Rain
7:20 PM 51.8 °F 50.0 °F 94% 29.83 in 5.0 mi NW 4.6 mph - N/A   Mostly Cloudy
7:50 PM 53.6 °F 50.0 °F 88% 29.83 in 5.0 mi NNW 4.6 mph - N/A   Mostly Cloudy
8:20 PM 53.6 °F 50.0 °F 88% 29.83 in 4.3 mi NW 3.5 mph - N/A   Mostly Cloudy
8:50 PM 51.8 °F 48.2 °F 88% 29.83 in 4.3 mi Variable 2.3 mph - N/A   Mostly Cloudy
9:20 PM 51.8 °F 50.0 °F 94% 29.86 in 4.3 mi Calm Calm - N/A   Mostly Cloudy
9:50 PM 51.8 °F 50.0 °F 94% 29.86 in 4.3 mi Variable 1.2 mph - N/A   Mostly Cloudy
10:20 PM 51.8 °F 50.0 °F 94% 29.86 in 3.7 mi South 2.3 mph - N/A Rain Light Rain
10:50 PM 51.8 °F 50.0 °F 94% 29.83 in 3.7 mi Variable 1.2 mph - N/A Rain Light Rain
11:20 PM 51.8 °F 50.0 °F 94% 29.83 in 3.7 mi Variable 1.2 mph - N/A Rain Light Rain
11:50 PM 50.0 °F 48.2 °F 94% 29.86 in 3.7 mi South 2.3 mph - N/A   Mostly Cloudy